Cherokee, North Carolina, United States (28719)
Lat: 35.47N, Lon: 83.31W
Wx Zone: NCZ051
Local Info
Past Weather Observations for Today

NOTE: This archive is for the closest National Weather Service station to Cherokee. Information may differ from the station used for current weather conditions.

Click here for Long-term Archive

Time Weather Temperature Dewpoint Humidity Pressure Winds Precip Visibility
07:35
Fair
52°F / 11°C 43°F / 6°C 72% 30.24 in
(1024 mb)
Calm - 10SM
07:15
Fair
48°F / 9°C 45°F / 7°C 87% 30.24 in
(1024 mb)
Calm - 10SM
06:55
Fair
46°F / 8°C 46°F / 8°C 100% 30.24 in
(1024 mb)
Calm - 10SM
06:35
Fair
45°F / 7°C 45°F / 7°C 100% 30.21 in
(1023 mb)
Calm - 10SM
06:15
Fair
43°F / 6°C 43°F / 6°C 100% 30.21 in
(1023 mb)
Calm - 10SM
05:55
Fair
43°F / 6°C 43°F / 6°C 100% 30.21 in
(1023 mb)
Calm - 10SM
05:35
Fair
43°F / 6°C 43°F / 6°C 100% 30.18 in
(1022 mb)
Calm - 10SM
05:15
Fair
43°F / 6°C 43°F / 6°C 100% 30.18 in
(1022 mb)
Calm - 10SM
04:55
Fair
45°F / 7°C 43°F / 6°C 93% 30.15 in
(1021 mb)
Calm - 10SM
04:35
Fair
45°F / 7°C 43°F / 6°C 93% 30.15 in
(1021 mb)
Calm - 10SM
04:15
Fair
48°F / 9°C 41°F / 5°C 76% 30.15 in
(1021 mb)
Calm - 10SM
03:55
Fair
50°F / 10°C 41°F / 5°C 71% 30.15 in
(1021 mb)
Calm - 10SM
03:35
Fair
50°F / 10°C 41°F / 5°C 71% 30.12 in
(1020 mb)
NW 4.6 mph
(NW 7 kph)
- 10SM
03:15
Fair
52°F / 11°C 41°F / 5°C 67% 30.12 in
(1020 mb)
NW 4.6 mph
(NW 7 kph)
- 10SM
02:55
Fair
52°F / 11°C 41°F / 5°C 67% 30.12 in
(1020 mb)
NW 3.5 mph
(NW 6 kph)
- 10SM
02:35
Fair
52°F / 11°C 41°F / 5°C 67% 30.12 in
(1020 mb)
NW 5.8 mph
(NW 9 kph)
- 10SM
02:15
Fair
52°F / 11°C 41°F / 5°C 67% 30.12 in
(1020 mb)
NW 5.8 mph
(NW 9 kph)
- 10SM
01:55
Fair
52°F / 11°C 41°F / 5°C 67% 30.12 in
(1020 mb)
NW 4.6 mph
(NW 7 kph)
- 10SM
01:35
Fair
54°F / 12°C 41°F / 5°C 63% 30.12 in
(1020 mb)
NW 4.6 mph
(NW 7 kph)
- 10SM
01:15
Fair
54°F / 12°C 41°F / 5°C 63% 30.12 in
(1020 mb)
NW 5.8 mph
(NW 9 kph)
- 10SM
00:55
Fair
54°F / 12°C 41°F / 5°C 63% 30.12 in
(1020 mb)
NNW 3.5 mph
(NNW 6 kph)
- 10SM
00:35
Fair
54°F / 12°C 43°F / 6°C 67% 30.12 in
(1020 mb)
WNW 4.6 mph
(WNW 7 kph)
- 10SM
00:15
Fair
54°F / 12°C 43°F / 6°C 67% 30.12 in
(1020 mb)
NW 4.6 mph
(NW 7 kph)
- 10SM
Time Weather Temperature Dewpoint Humidity Pressure Winds Precip Visibility


Weather for websites

WeatherForYou.com, LLC is not responsible for any damages or problems caused by this service. Current weather conditions are obtained from the closest station including government and personal stations which may have varying degrees of accuracy. Weather forecasts are derived from the NOAA NDFD. Like all things, this site belongs to Jesus Christ... He just trusts us to maintain it. If you have any questions or comments email webmaster@weatherforyou.com

Copyright © 2015, WeatherForYou.com LLC. All rights reserved.